Regional Weather Roundup
Issued by NWS

Home | Current Version | Previous Version | Graphics & Text | Print | Product List | Glossary On
Versions: 1 2 3 4 5 6 7 8 9 10 11 12 13 14 15 16 17 18 19 20 21 22 23 24 25 26 27 28 29 30 31 32 33 34 35 36 37 38 39 40 41 42 43 44 45 46 47 48 49 50
000
ASUS43 KIND 250759
RWRIN

WEATHER ROUNDUP FOR INDIANA
NATIONAL WEATHER SERVICE INDIANAPOLIS IN
400 AM EDT MON MAY 25 2015

NOTE: "FAIR" INDICATES FEW OR NO CLOUDS BELOW 12,000 FEET WITH NO
SIGNIFICANT WEATHER AND/OR OBSTRUCTIONS TO VISIBILITY.

* - STATION DOES NOT REPORT WEATHER SUCH AS PRECIPITATION OR FOG.

+ - STATION NOT QUALITY CONTROLLED BY THE NATIONAL WEATHER SERVICE.
    USE DATA WITH CAUTION...ESPECIALLY DEWPOINT AND RELATIVE
    HUMIDITY OBSERVATIONS.

INZ001>003-010>013-019-020-250900-
NORTHWEST INDIANA

CITY           SKY/WX    TMP DP  RH WIND       PRES   REMARKS
RENSSELAER +   CLOUDY    72  63  73 S10       29.91F

$$

LMZ046-743>745-250900-
SOUTHERN LAKE MICHIGAN

STATION/POSITION TIME  TEMP    WIND        PRES    WAVE
                       AIR SEA DIR/SP/G            HT
                 (UTC) (F)     (DEG/KT/KT) (MB)    (FT)
BURNS HARBOR     0700   74     170/  9/ 21 1012.5F
MICHIGAN CITY    0700   74     160/ 16/ 23   N/A
5NW MICH CITY    0700   68 53  190/ 16/ 21   N/A     2

$$

INZ004-005-014>016-021>024-250900-
NORTH CENTRAL INDIANA

CITY           SKY/WX    TMP DP  RH WIND       PRES   REMARKS
GOSHEN         CLEAR     70  57  63 S12       29.96F
SOUTH BEND     MOCLDY    73  59  61 S13G22    29.93F

$$

INZ006>009-017-018-025>027-250900-
NORTHEAST INDIANA

CITY           SKY/WX    TMP DP  RH WIND       PRES   REMARKS
ANGOLA *+      CLEAR     70  55  60 S9        29.99F
FORT WAYNE     MOCLDY    69  56  62 S13       30.01F

$$

INZ028-029-035-036-043>045-051>053-250900-
WEST CENTRAL INDIANA

CITY           SKY/WX    TMP DP  RH WIND       PRES   REMARKS
CRAWFORDSVL +  CLOUDY    72  57  59 S20G29    29.97S
GREENCASTLE +  CLOUDY    72  59  64 S14G23    29.99F
LAFAYETTE      CLOUDY    73  61  65 S9        29.92F
TERRE HAUTE    MOCLDY    74  63  68 S16G23    29.97S

$$

INZ030>032-037>040-046>048-054>057-064-065-250900-
CENTRAL INDIANA

CITY           SKY/WX    TMP DP  RH WIND       PRES   REMARKS
GREENWOOD *+   CLOUDY    72  55  56 S12       30.03S
INDIANAPOLIS   CLOUDY    73  60  63 S14       29.99F
-EAGLE CREEK   CLOUDY    74  60  61 S9G17     30.00S
KOKOMO *+      CLOUDY    70  57  64 S12       29.98F
MT COMFORT *+  CLOUDY    72  48  43 S12       30.02F
SHELBYVILLE    CLOUDY    74  58  57 S13       30.02F

$$

INZ033-034-041-042-049-050-058-059-250900-
EAST CENTRAL INDIANA

CITY           SKY/WX    TMP DP  RH WIND       PRES   REMARKS
MUNCIE         MOCLDY    72  57  59 S13       30.02F

$$

INZ060-061-067>069-081>083-085>088-250900-
SOUTHWEST INDIANA

CITY           SKY/WX    TMP DP  RH WIND       PRES   REMARKS
EVANSVILLE     HVY RAIN  69  66  90 S18G24    30.03F FOG
HUNTINGBURG *+ CLOUDY    66  63  88 S7        30.06S

$$

INZ062-063-066-070>080-084-089>092-250900-
SOUTH CENTRAL AND SOUTHEAST INDIANA

CITY           SKY/WX    TMP DP  RH WIND       PRES   REMARKS
BLOOMINGTON    LGT RAIN  73  63  70 S13G23    30.02S
MADISON *+     CLOUDY    72  54  53 S10       30.08F
SEYMOUR +      CLOUDY    75  59  57 S12       30.04F

$$




USA.gov is the U.S. government's official web portal to all federal, state and local government web resources and services.